Location: Dalton
(34.7700°N, 84.9700°W)
Time: 08:48:26
(UTC-05:00)

Tiangong 2 - Pass Details

Date: 13 October 2017
Orbit: 386 x 390 km, 42.8° (Epoch: 17 December)

Event Time Altitude Azimuth Distance (km) Brightness Sun altitude
Exits shadow 05:53:05 19° 23° (NNE) 1,008 3.5 -23.6°
Drops below altitude 10° 05:54:31 10° 44° (NE) 1,423 4.6 -23.3°
Sets 05:56:51 0° 59° (ENE) 2,281 6.1 -22.8°
